User: anonymous   Login
Location: Unspecified
(0.0000°N, 0.0000°E)
Time: 15:01:01
(UTC+00:00)
Language:

Landsat 7 - Orbit

View from above orbital plane
View from above orbital plane
View from above satellite
View from above satellite

Ground track
Ground track

The orbit data is extracted from the following two-line orbital elements,

1 25682U 99020A   16121.21577747  .00000098  00000-0  31891-4 0  9997
2 25682  98.2152 192.2603 0001139  95.3707 264.7640 14.57106910906457
Epoch (UTC): 30 April 2016 05:10:43
Eccentricity: 0.0001139
inclination: 98.2152°
perigee height: 702 km
apogee height: 703 km
right ascension of ascending node: 192.2603°
argument of perigee: 95.3707°
revolutions per day: 14.57106910
mean anomaly at epoch: 264.7640°
orbit number at epoch: 90645

The dashed part of the orbit path shows where the satellite is in the earth's shadow,  

DLR